sat.trackr.live / text

‹ back to catalog

STARLINK-5099

NORAD 54009 · 2022-125AX

PAYLOAD ACTIVE UNKNOWN

§ Identity

Operator
Country
US
Launch date
2022-10-05
Launch site
AFWTR
Launch vehicle
Mass (kg)
RCS (m²)

Purposes: comms

External: N2YO · Heavens-Above · Gunter

§ Orbital elements

Epoch: 2026-05-24T23:14:34.818720Z

Period
95.44 min
Inclination
53.2159°
Eccentricity
0.0001134
Mean motion
15.08839125 rev/d
Perigee alt
539.0 km
Apogee alt
540.5 km
Semi-major
6,917.9 km
B*
2.3818e-5
RAAN
231.2943°
Arg perigee
92.2928°
Mean anomaly
267.8194°
Rev number
20,098

§ Raw data

STARLINK-50991 54009U 22125AX  26144.96845855  .00000091  00000+0  23818-4 0  99922 54009  53.2159 231.2943 0001134  92.2928 267.8194 15.08839125200988

JSON: /api/v1/satellites/54009 · /tle

For live sub-satellite position, see the globe view (requires WebGL).

§ Visibility from observer

Set your observer location to see the next 7 days of passes ≥ 10°. The values pass through the URL so the page stays shareable.

No JS? Fill the form by hand. The geolocation button needs JavaScript.